Home   Weather   Key West   Past weeks

Flag for USA Past Weather in Key West, Florida, USA — Yesterday and Last 2 Weeks

Now
80 °F

Sunny.


Feels Like: 84 °F
Forecast: 78 / 83 °F
Wind: 17 mph from Southeast

Location: Key West International Airport

Current Time: Apr 30, 2017 at 9:18:01 am

Latest Report: Apr 30, 2017 at 7:53 am


Visibility: 10 mi

Pressure: 30.05 "Hg

Humidity: 79%

Dew Point: 73 °F

Location of Key WestLocation

Past Weather in Key West — Graph

°F

Key West Temperature Yesterday

Maximum temperature yesterday: 84 °F (at 11:53 am)
Minimum temperature yesterday: 79 °F (at 2:53 am)
Average temperature yesterday: 81 °F

High & Low Weather Summary for the Past Weeks

 TemperatureHumidityPressure
High85 °F (Apr 28, 1:53 pm)97% (Apr 17, 12:34 pm)30.17 "Hg (Apr 17, 12:34 pm)
Low71 °F (Apr 17, 1:53 pm)58% (Apr 16, 12:53 pm)29.76 "Hg (Apr 23, 4:53 pm)
Average78 °F80%29.97 "Hg
* Reported Apr 15 7:53 am — Apr 30 7:53 am, Key West, Weather by CustomWeather, © 2017

Note: Actual official high and low records may vary slightly from our data, if they occured in-between our weather recording intervals... More about our weather records

Advertising

Key West Weather History for the Previous 24 Hours

Scroll right to see more
 ConditionsComfort  
Time TempWeatherWind HumidityBarometerVisibility
7:53 am
Sun, Apr 30
80 °FSunny.17 mph79%30.05 "Hg10 mi
6:53 am80 °FPassing clouds.18 mph79%30.03 "Hg10 mi
6:40 am79 °FPassing clouds.18 mph82%30.04 "Hg10 mi
5:53 am80 °FPassing clouds.16 mph81%30.03 "Hg10 mi
4:53 am79 °FPassing clouds.18 mph84%30.02 "Hg10 mi
3:53 am80 °FPassing clouds.18 mph81%30.03 "Hg10 mi
2:53 am80 °FPassing clouds.21 mph81%30.03 "Hg10 mi
1:53 am80 °FPassing clouds.24 mph81%30.05 "Hg10 mi
12:53 am80 °FPassing clouds.23 mph81%30.05 "Hg10 mi
11:53 pm
Sat, Apr 29
80 °FPassing clouds.21 mph81%30.06 "Hg10 mi
10:53 pm80 °FPassing clouds.22 mph81%30.05 "Hg10 mi
9:53 pm80 °FPassing clouds.22 mph81%30.04 "Hg10 mi
8:53 pm80 °FPassing clouds.18 mph81%30.03 "Hg10 mi
7:53 pm80 °FPassing clouds.20 mph79%30.02 "Hg10 mi
6:53 pm81 °FPassing clouds.21 mph79%30.02 "Hg10 mi
5:53 pm82 °FPassing clouds.21 mph77%30.02 "Hg10 mi
5:25 pm82 °FScattered clouds.23 mph74%30.02 "Hg10 mi
5:11 pm82 °FBroken clouds.23 mph74%30.03 "Hg10 mi
4:53 pm83 °FPassing clouds.21 mph74%30.03 "Hg10 mi
3:53 pm83 °FScattered clouds.22 mph74%30.04 "Hg10 mi
2:53 pm83 °FScattered clouds.22 mph74%30.06 "Hg10 mi
1:53 pm84 °FPassing clouds.22 mph72%30.07 "Hg10 mi
12:53 pm84 °FPassing clouds.18 mph72%30.09 "Hg10 mi
11:53 am84 °FSunny.18 mph74%30.10 "Hg10 mi
10:53 am83 °FScattered clouds.17 mph77%30.10 "Hg10 mi
9:53 am82 °FPassing clouds.20 mph79%30.10 "Hg10 mi
Weather by CustomWeather, © 2017

See weather overviewHow to use our weather pages